Weather in Tair

Russia / Mari El Republic     56°16′05″N   47°50′49″E
temp.,
°C
wind,
m/s
gust,
m/s
humid.,
%
clouds,
%
prec.,
mm/h
press.,
hPa
HPBL,
m
31 july, sat
sat3100:00+18w3896100 3.3 1004299
03:00+18ene119891 6.6 100328
06:00+19s359652 0.4 1003311
09:00+21sw468352 0.6 1002709
12:00+24wsw467336 0.8 10031012
15:00+26w695410 1.6 10031745
18:00+23w411560 0.0 1004633
21:00+19wsw23758 0.0 100660
1 august, sun
sun100:00+18ssw38735 0.0 1007140
03:00+16wsw310750 0.0 1008204
06:00+18wsw28690 0.0 1010243
09:00+24wsw484748 0.0 10111025
12:00+27w584010 0.0 10111988
15:00+27wsw573933 0.0 10112201
18:00+25wsw3651100 0.0 1011282
21:00+20sw236561 0.0 101250
2 august, mon
mon200:00+19ssw2566100 0.0 101286
03:00+19ssw2663100 0.0 1013125
06:00+19ssw276729 0.0 1013187
09:00+25ssw485099 0.0 1013563
12:00+30sw583689 0.0 10121690
15:00+32wsw483368 0.0 10102690
18:00+29ssw245029 0.0 101090
21:00+22ssw136821 0.0 101065
3 august, tue
tue300:00+20sse22725 0.0 100912
03:00+18sse387711 0.3 1009133
06:00+21sse3117012 0.2 1008286
09:00+28ssw510418 0.2 1006649
12:00+30ssw5939100 0.0 10061042
15:00+28wsw395048 0.0 1007479
18:00+27sw4104897 0.0 1007686
21:00+24sw41159100 0.0 1008640
4 august, wed
wed400:00+19sw21086100 0.6 1008295
03:00+18s2295100 1.0 100735
06:00+18sw3794100 0.1 1008300
09:00+20w5679100 0.1 1010783
12:00+20w4669100 0.0 1011998
15:00+24wnw375111 0.1 10111738
18:00+22nw38600 0.0 1013758
21:00+17w22810 0.0 101417